TimeEST,TemperatureF,Dew PointF,Humidity,Sea Level PressureIn,VisibilityMPH,Wind Direction,Wind SpeedMPH,Gust SpeedMPH,PrecipitationIn,Events,Conditions,WindDirDegrees,DateUTC
12:17 AM,14.0,3.7,64,30.46,10.0,WNW,10.4,-,N/A,,Mostly Cloudy,290,2013-12-08 05:17:00
12:37 AM,13.6,2.1,60,30.47,10.0,WNW,5.8,-,N/A,,Mostly Cloudy,300,2013-12-08 05:37:00
12:57 AM,13.6,2.3,61,30.47,10.0,WNW,9.2,-,N/A,,Overcast,290,2013-12-08 05:57:00
1:17 AM,13.5,3.0,63,30.46,10.0,WNW,8.1,-,N/A,,Overcast,290,2013-12-08 06:17:00
1:37 AM,13.5,4.5,67,30.46,10.0,West,6.9,-,N/A,,Overcast,280,2013-12-08 06:37:00
1:58 AM,13.1,3.9,67,30.46,10.0,West,5.8,-,N/A,,Overcast,280,2013-12-08 06:58:00
2:17 AM,12.7,0.7,59,30.46,10.0,WNW,5.8,-,N/A,,Scattered Clouds,290,2013-12-08 07:17:00
2:37 AM,12.6,-0.4,56,30.46,10.0,WNW,4.6,-,N/A,,Clear,290,2013-12-08 07:37:00
2:58 AM,12.7,-2.9,50,30.45,10.0,WNW,10.4,16.1,N/A,,Clear,290,2013-12-08 07:58:00
3:17 AM,12.7,-2.9,50,30.45,10.0,WNW,6.9,18.4,N/A,,Clear,300,2013-12-08 08:17:00
3:37 AM,12.6,-0.4,56,30.45,10.0,NW,5.8,-,N/A,,Clear,310,2013-12-08 08:37:00
3:58 AM,12.6,-3.3,49,30.45,10.0,West,6.9,-,N/A,,Clear,270,2013-12-08 08:58:00
4:17 AM,12.2,-4.2,48,30.45,10.0,West,4.6,-,N/A,,Clear,280,2013-12-08 09:17:00
4:37 AM,12.0,-2.0,53,30.45,10.0,West,4.6,-,N/A,,Clear,280,2013-12-08 09:37:00
4:57 AM,11.3,-0.0,60,30.46,10.0,WSW,3.5,-,N/A,,Clear,240,2013-12-08 09:57:00
5:17 AM,10.2,0.3,64,30.47,10.0,WSW,4.6,-,N/A,,Clear,240,2013-12-08 10:17:00
5:37 AM,10.4,0.1,63,30.47,10.0,WSW,4.6,-,N/A,,Clear,250,2013-12-08 10:37:00
5:57 AM,11.3,-2.0,55,30.48,10.0,WSW,4.6,-,N/A,,Clear,250,2013-12-08 10:57:00
6:17 AM,11.1,-1.7,57,30.48,10.0,West,3.5,-,N/A,,Clear,260,2013-12-08 11:17:00
6:38 AM,10.9,-1.3,58,30.48,10.0,WSW,3.5,-,N/A,,Clear,240,2013-12-08 11:38:00
6:57 AM,10.4,-2.0,57,30.48,10.0,WSW,3.5,-,N/A,,Clear,240,2013-12-08 11:57:00
7:17 AM,10.9,-2.2,56,30.49,10.0,WSW,3.5,-,N/A,,Clear,250,2013-12-08 12:17:00
7:38 AM,11.8,-4.0,49,30.49,10.0,West,3.5,-,N/A,,Clear,270,2013-12-08 12:38:00
7:57 AM,11.8,-1.3,56,30.48,10.0,Calm,Calm,-,N/A,,Clear,0,2013-12-08 12:57:00
8:17 AM,12.2,2.7,66,30.48,10.0,Calm,Calm,-,N/A,,Clear,0,2013-12-08 13:17:00
8:38 AM,12.9,4.3,68,30.47,10.0,Calm,Calm,-,N/A,,Clear,0,2013-12-08 13:38:00
8:57 AM,14.7,6.3,69,30.46,10.0,West,3.5,-,N/A,,Clear,260,2013-12-08 13:57:00
9:17 AM,15.6,6.8,68,30.46,10.0,Calm,Calm,-,N/A,,Clear,0,2013-12-08 14:17:00
9:37 AM,16.3,7.2,67,30.45,10.0,NW,3.5,-,N/A,,Scattered Clouds,310,2013-12-08 14:37:00
9:57 AM,16.5,6.6,65,30.46,10.0,WNW,4.6,-,N/A,,Scattered Clouds,290,2013-12-08 14:57:00
10:17 AM,17.2,5.5,60,30.46,10.0,West,4.6,-,N/A,,Clear,270,2013-12-08 15:17:00
10:37 AM,17.2,6.1,62,30.46,10.0,NW,3.5,-,N/A,,Scattered Clouds,310,2013-12-08 15:37:00
10:58 AM,17.4,4.3,56,30.46,10.0,Calm,Calm,-,N/A,,Scattered Clouds,0,2013-12-08 15:58:00
11:17 AM,17.6,5.0,58,30.46,10.0,WNW,3.5,-,N/A,,Scattered Clouds,290,2013-12-08 16:17:00
11:37 AM,18.1,5.9,59,30.45,10.0,WNW,3.5,-,N/A,,Mostly Cloudy,300,2013-12-08 16:37:00
11:57 AM,18.7,6.8,60,30.44,10.0,Calm,Calm,-,N/A,,Scattered Clouds,0,2013-12-08 16:57:00
12:17 PM,18.9,8.2,63,30.43,10.0,NW,3.5,-,N/A,,Mostly Cloudy,310,2013-12-08 17:17:00
12:37 PM,19.8,8.4,61,30.42,10.0,Calm,Calm,-,N/A,,Scattered Clouds,0,2013-12-08 17:37:00
12:57 PM,19.6,9.1,64,30.41,10.0,Calm,Calm,-,N/A,,Mostly Cloudy,0,2013-12-08 17:57:00
1:17 PM,20.5,9.7,63,30.41,10.0,North,3.5,-,N/A,,Overcast,360,2013-12-08 18:17:00
1:36 PM,19.9,9.3,63,30.40,10.0,Calm,Calm,-,N/A,,Overcast,0,2013-12-08 18:36:00
1:57 PM,20.3,10.0,65,30.40,10.0,Calm,Calm,-,N/A,,Overcast,0,2013-12-08 18:57:00
2:17 PM,19.9,9.5,64,30.38,10.0,North,3.5,-,N/A,,Overcast,360,2013-12-08 19:17:00
2:37 PM,20.8,10.2,64,30.38,10.0,Calm,Calm,-,N/A,,Overcast,0,2013-12-08 19:37:00
2:57 PM,20.5,10.2,65,30.36,10.0,Calm,Calm,-,N/A,,Overcast,0,2013-12-08 19:57:00
3:18 PM,21.0,11.1,66,30.36,10.0,Calm,Calm,-,N/A,,Overcast,0,2013-12-08 20:18:00
3:37 PM,21.0,12.2,69,30.36,7.0,SE,3.5,-,N/A,,Overcast,140,2013-12-08 20:37:00
3:57 PM,20.3,14.0,77,30.35,3.0,SE,3.5,-,N/A,Snow,Light Snow,140,2013-12-08 20:57:00
4:18 PM,19.9,14.7,80,30.35,2.0,Calm,Calm,-,N/A,Snow,Light Snow,0,2013-12-08 21:18:00
4:37 PM,19.8,15.3,83,30.33,3.0,Calm,Calm,-,N/A,Snow,Light Snow,0,2013-12-08 21:37:00
4:57 PM,19.4,15.4,85,30.33,2.0,Calm,Calm,-,N/A,Snow,Light Snow,0,2013-12-08 21:57:00
5:18 PM,19.4,15.6,85,30.31,2.5,Calm,Calm,-,N/A,Snow,Light Snow,0,2013-12-08 22:18:00
5:37 PM,19.4,15.8,86,30.30,2.5,Calm,Calm,-,N/A,Snow,Light Snow,0,2013-12-08 22:37:00
5:57 PM,19.4,16.2,87,30.29,2.5,Calm,Calm,-,N/A,Snow,Light Snow,0,2013-12-08 22:57:00
6:17 PM,19.4,16.3,88,30.28,4.0,Calm,Calm,-,N/A,Snow,Light Snow,0,2013-12-08 23:17:00
6:37 PM,19.8,16.7,88,30.27,2.0,Calm,Calm,-,N/A,Snow,Light Snow,0,2013-12-08 23:37:00
6:57 PM,20.3,17.6,89,30.26,2.5,Calm,Calm,-,N/A,Snow,Light Snow,0,2013-12-08 23:57:00
7:17 PM,20.7,18.0,89,30.25,2.0,ESE,3.5,-,N/A,Snow,Light Snow,110,2013-12-09 00:17:00
7:37 PM,21.0,18.7,91,30.24,2.0,Calm,Calm,-,N/A,Snow,Light Snow,0,2013-12-09 00:37:00
7:57 PM,21.2,18.5,89,30.22,2.0,East,5.8,-,N/A,Snow,Light Snow,80,2013-12-09 00:57:00
8:17 PM,21.2,18.5,89,30.21,-9999.0,ESE,6.9,-,N/A,Snow,Light Snow,110,2013-12-09 01:17:00
8:36 PM,21.4,18.5,89,30.21,-9999.0,East,4.6,-,N/A,,Overcast,100,2013-12-09 01:36:00
8:57 PM,21.7,19.2,90,30.20,2.5,East,3.5,-,N/A,Snow,Light Snow,80,2013-12-09 01:57:00
9:17 PM,21.9,19.4,90,30.18,2.0,East,4.6,-,N/A,Snow,Light Snow,90,2013-12-09 02:17:00
9:37 PM,21.9,19.9,92,30.17,1.5,East,4.6,-,N/A,Snow,Light Snow,90,2013-12-09 02:37:00
9:57 PM,22.1,20.3,93,30.14,1.5,East,3.5,-,N/A,Snow,Light Snow,90,2013-12-09 02:57:00
10:17 PM,22.6,20.8,93,30.13,1.8,East,3.5,-,N/A,Snow,Light Snow,100,2013-12-09 03:17:00
10:37 PM,23.0,21.2,93,30.12,2.5,East,3.5,-,N/A,Snow,Light Snow,100,2013-12-09 03:37:00
10:57 PM,23.5,21.7,93,30.10,1.8,East,3.5,-,N/A,Snow,Light Snow,90,2013-12-09 03:57:00
11:17 PM,23.9,22.1,93,30.08,0.8,East,4.6,-,N/A,Snow,Snow,80,2013-12-09 04:17:00
11:37 PM,24.1,22.8,95,30.07,0.8,ESE,3.5,-,N/A,Snow,Snow,120,2013-12-09 04:37:00
11:57 PM,24.8,23.4,94,30.06,1.2,ESE,3.5,-,N/A,Snow,Light Snow,110,2013-12-09 04:57:00